This is the latest recevied weather packets stored in our database for station/object K2CAT. If no packets are shown the sender has not sent any weather packets the latest 10 day(s).
| Time | Temp. | Humidity | Pressure | Rain* | Wind** | Luminosity | Snow |
|---|---|---|---|---|---|---|---|
| 1777786410 | 6.67° C | 61% | 1012 hPa | 0 mm | - | 0 W/m² | - |
| 1777786106 | 6.67° C | 61% | 1012.2 hPa | 0 mm | - | 0 W/m² | - |
| 1777785803 | 7.22° C | 59% | 1012.3 hPa | 0 mm | - | 0 W/m² | - |
| 1777785499 | 7.22° C | 59% | 1012.2 hPa | 0 mm | - | 0 W/m² | - |
| 1777785195 | 7.22° C | 61% | 1012.5 hPa | 0 mm | - | 0 W/m² | - |
| 1777784892 | 7.22° C | 60% | 1012.2 hPa | 0 mm | - | 0 W/m² | - |
| 1777784588 | 7.22° C | 60% | 1012.4 hPa | 0 mm | - | 0 W/m² | - |
| 1777784286 | 6.67° C | 61% | 1012.4 hPa | 0 mm | - | 0 W/m² | - |
| 1777783984 | 6.67° C | 67% | 1012.3 hPa | 0 mm | - | 0 W/m² | - |
| 1777783680 | 6.67° C | 68% | 1012.5 hPa | 0 mm | - | 0 W/m² | - |
| 1777783377 | 6.67° C | 69% | 1012.5 hPa | 0 mm | - | 0 W/m² | - |
| 1777783074 | 7.22° C | 68% | 1012.5 hPa | 0 mm | - | 0 W/m² | - |
| 1777782771 | 7.22° C | 68% | 1012.3 hPa | 0 mm | - | 0 W/m² | - |
| 1777782467 | 6.67° C | 67% | 1012.6 hPa | 0 mm | - | 0 W/m² | - |
| 1777782164 | 6.67° C | 69% | 1012.4 hPa | 0 mm | - | 0 W/m² | - |
| 1777781860 | 6.67° C | 68% | 1012.5 hPa | 0 mm | - | 0 W/m² | - |
| 1777781558 | 6.67° C | 71% | 1012.4 hPa | 0 mm | - | 0 W/m² | - |
| 1777781255 | 6.67° C | 72% | 1012.5 hPa | 0 mm | - | 0 W/m² | - |
| 1777780953 | 6.67° C | 72% | 1012.5 hPa | 0 mm | - | 0 W/m² | - |
| 1777780649 | 6.67° C | 72% | 1012.5 hPa | 0 mm | - | 0 W/m² | - |
| 1777780347 | 6.67° C | 72% | 1012.5 hPa | 0 mm | - | 0 W/m² | - |
| 1777780044 | 6.67° C | 70% | 1012.5 hPa | 0 mm | - | 0 W/m² | - |
| 1777779741 | 6.67° C | 69% | 1012.6 hPa | 0 mm | - | 0 W/m² | - |
| 1777779438 | 6.67° C | 68% | 1012.3 hPa | 0 mm | - | 0 W/m² | - |
| 1777779135 | 6.67° C | 69% | 1012.2 hPa | 0 mm | - | 0 W/m² | - |
* Rain latest hour (hover to see other rain measurements)
** Current wind speed in m/s (hover to see current wind gust speed)